Owen Roberts, Cayman Islands

1:21 AM EST on November 23, 2017 (GMT -0500)
Roberts International

Weather History for MWCR - December, 2012

Change the Weather History Date:

Thursday, December 6, 2012

  Actual Average Record
Temperature  
Mean Temperature 76 °F -  
Max Temperature 82 °F 82 °F 89 °F (2002)
Min Temperature 69 °F 74 °F 69 °F (2012)
Cooling Degree Days 10    
Growing Degree Days 26 (Base 50)    
Moisture  
Dew Point 73 °F    
Average Humidity 85    
Maximum Humidity 100    
Minimum Humidity 70    
Precipitation  
Precipitation 0.00 in - - ()
Sea Level Pressure  
Sea Level Pressure 29.90 in    
Wind  
Wind Speed 4 mph ()    
Max Wind Speed 9 mph    
Max Gust Speed -    
Visibility 6.2 miles    
Events Tornado    
Averages and records for this station are not official NWS values.
T = Trace of Precipitation, MM = Missing Value Source: Averaged Metar Reports

Daily Weather History Graph

Daily Weather History Graph

Search for Another Location

Airport or City:

Trip Planner

Search our weather history database for the weather conditions in past years. The results will help you decide how hot, cold, wet, or windy it might be!

Date:

Astronomy

Dec. 06, 2012 Rise Set
Actual Time 6:46 AM EST 5:47 PM EST
Civil Twilight 6:22 AM EST 6:10 PM EST
Nautical Twilight 5:55 AM EST 6:38 PM EST
Astronomical Twilight 5:28 AM EST 7:05 PM EST
Moon No Moon Rise 12:23 PM EST (12/6)
Length of Visible Light 11h 48m
Length of Day
11h 00m
Waning Gibbous, 49% of the Moon is Illuminated
Dec 6
Waning Gibbous
Dec 13
New
Dec 20
First Quarter
Dec 28
Full
Jan 4
Last Quarter

Hourly Weather History & Observations

Time (EST) Temp. Heat Index Dew Point Humidity Pressure Visibility Wind Dir Wind Speed Gust Speed Precip Events Conditions
6:00 AM 71.6 °F - 69.8 °F 94% 29.89 in 6.2 mi NE 3.5 mph - N/A   Partly Cloudy
7:00 AM 72 °F - 70 °F 92% 29.92 in 6 mi Calm Calm - -   Partly Cloudy
7:00 AM 71.6 °F - 69.8 °F 94% 29.92 in 6.2 mi Calm Calm - N/A   Scattered Clouds
8:00 AM 73.4 °F - 73.4 °F 100% 29.92 in 6.2 mi Calm Calm - N/A   Scattered Clouds
10:00 AM 78.8 °F - 71.6 °F 78% 29.95 in 6.2 mi NE 4.6 mph - N/A   Partly Cloudy
11:00 AM 80.6 °F 85.4 °F 73.4 °F 79% 29.95 in 6.2 mi NE 5.8 mph - N/A   Mostly Cloudy
12:00 PM 80.6 °F 86.2 °F 75.2 °F 84% 29.92 in 6.2 mi NE 9.2 mph - N/A   Partly Cloudy
1:00 PM 82 °F - 74 °F 70% 29.89 in 6 mi NE 9.2 mph - -  
1:00 PM 82.4 °F 88.2 °F 73.4 °F 74% 29.89 in 6.2 mi NE 9.2 mph - N/A Tornado Funnel Cloud
2:00 PM 80.6 °F 85.4 °F 73.4 °F 79% 29.86 in 6.2 mi NE 9.2 mph - N/A   Partly Cloudy
3:00 PM 80.6 °F 87.1 °F 77.0 °F 89% 29.86 in 6.2 mi NE 9.2 mph - N/A   Scattered Clouds
4:00 PM 80.6 °F 85.4 °F 73.4 °F 79% 29.86 in 6.2 mi NE 5.8 mph - N/A   Partly Cloudy
5:00 PM 80.6 °F 85.4 °F 73.4 °F 79% 29.86 in 6.2 mi NE 5.8 mph - N/A   Partly Cloudy
6:00 PM 78.8 °F - 73.4 °F 83% 29.86 in 6.2 mi NE 4.6 mph - N/A   Partly Cloudy
7:00 PM 77 °F - 73 °F 85% 29.89 in 6 mi NE 3.5 mph - -   Partly Cloudy
7:00 PM 77.0 °F - 73.4 °F 89% 29.89 in 6.2 mi NE 3.5 mph - N/A   Partly Cloudy
8:00 PM 77.0 °F - 73.4 °F 89% 29.89 in - Calm Calm - N/A   Clear
9:00 PM 77.0 °F - 73.4 °F 89% 29.92 in - North 3.5 mph - N/A   Clear
10:00 PM 75.2 °F - 73.4 °F 94% 29.92 in 6.2 mi Calm Calm - N/A   Partly Cloudy